Regional Weather Roundup
Issued by NWS Goodland, KS

Home | Current Version | Previous Version | Graphics & Text | Print | Product List | Glossary On
Versions: 1 2 3 4 5 6 7 8 9 10 11 12 13 14 15 16 17 18 19 20 21 22 23 24 25 26 27 28 29 30 31 32 33 34 35 36 37 38 39 40 41 42 43 44 45 46 47 48 49 50
473
ASUS43 KGLD 201559
RWRGLD

GOODLAND FORECAST AREA HOURLY WEATHER ROUNDUP
NATIONAL WEATHER SERVICE GOODLAND KS
900 AM MST MON NOV 20 2017

...OFFICIAL OBSERVATIONS...

CITY           SKY/WX    TMP DP  RH WIND       PRES   REMARKS
GOODLAND KS    SUNNY     59  11  15 W12       29.80F
HILL CITY KS   CLOUDY    44  27  51 SW5       29.76F
IMPERIAL NEB   SUNNY     49  15  25 W10       29.76S
MCCOOK NEB     CLOUDY    38  25  59 W10       29.77F
AKRON CO       CLOUDY    54   6  14 W13       29.82R
BURLINGTON CO  SUNNY     54  12  18 W10       29.83F
LIMON CO       CLOUDY    43  14  31 N5        29.86F
$$

...UNOFFICIAL OBSERVATIONS...

CITY           SKY/WX    TMP DP  RH WIND       PRES   REMARKS
LENORA KS        N/A     44  32  63 CALM        N/A
NORTON KS      SUNNY     45  23  42 SW7       29.75
SHARON SPRINGS   N/A     48  24  38 SW6G13      N/A
TRENTON NEB      N/A     40  32  73 W6          N/A
YUMA CO        FAIR      52  12  20 W10       29.78F
$$




USA.gov is the U.S. government's official web portal to all federal, state and local government web resources and services.